Regional Weather Roundup
Issued by NWS

Home | Current Version | Previous Version | Text Only | Print | Product List | Glossary On
Versions: 1 2 3 4 5 6 7 8 9 10 11 12 13 14 15 16 17 18 19 20 21 22 23 24 25 26 27 28 29 30 31 32 33 34 35 36 37 38 39 40 41 42 43 44 45 46 47 48 49 50
000
ASUS43 KDTX 270301
RWRMI
MICHIGAN HOURLY REGIONAL WEATHER ROUNDUP
NATIONAL WEATHER SERVICE DETROIT/PONTIAC MI
1100 PM EDT WED APR 26 2017

NOTE: "FAIR" INDICATES FEW OR NO CLOUDS BELOW 12,000 FEET WITH NO
SIGNIFICANT WEATHER AND/OR OBSTRUCTION TO VISIBILITY.

MIZ047>049-052>055-059>063-066>070-074>076-081>083-270400-
SOUTHEAST LOWER MICHIGAN

CITY           SKY/WX    TMP DP  RH WIND       PRES   REMARKS
ADRIAN         CLOUDY    65  57  75 NW6G26    29.55R
ALMA           CLOUDY    63  58  84 CALM      29.51F
ANN ARBOR      CLOUDY    72  59  63 SW23G31   29.58R THUNDER
BAD AXE        MOCLDY    66  54  65 S10G17    29.55S
CARO           MOCLDY    67  56  68 SE5       29.54R
DETROIT CITY   CLOUDY    62  52  69 SE7       29.57R
DETROIT        MOCLDY    68  54  60 SE9       29.56S
FLINT          CLOUDY    68  56  65 CALM      29.54R
GROSSE ILE     CLOUDY    65  52  62 S8        29.55F
HILLSDALE      CLOUDY    63  55  77 SE5       29.50F
HOWELL         LGT RAIN  71  56  59 SE3       29.54S

CITY           SKY/WX    TMP DP  RH WIND       PRES   REMARKS
JACKSON        TSTM      67  61  81 SE10      29.55R
LAMBERTVILLE   CLOUDY    75  56  52 S6        29.55F
LANSING        CLOUDY    68  57  68 E9        29.50F
LAPEER         FAIR      66  53  62 SE8       29.56R
MASON          CLOUDY    67  60  77 S6        29.55R
MONROE         PTCLDY    72  57  60 S13       29.55R
MT. CLEMENS    CLOUDY    60  55  84 E6        29.57S
PONTIAC        MOCLDY    64  53  67 E8        29.55R THUNDER
PORT HOPE        N/A     67  55  65 SE10      29.53S
PORT HURON     PTCLDY    63  52  67 SE7       29.59S
TRI CITIES     CLOUDY    66  60  81 SE7       29.53R
MIDLAND        FAIR      68  55  64 CALM      29.51S
TROY           MOCLDY    64  51  62 E5        29.58F
SAGINAW HB     CLOUDY    68  54  60 SE7       29.53R
$$
MIZ043>046-050>051-056>058-064>065-071>073-077>080-270400-
SOUTHWEST LOWER MICHIGAN

CITY           SKY/WX    TMP DP  RH WIND       PRES   REMARKS
BATTLE CREEK   CLOUDY    70  57  63 E7        29.46F
BENTON HARBOR  CLOUDY    63  55  75 CALM      29.47R
BIG RAPIDS     CLOUDY    64  52  65 CALM      29.49S
COLDWATER      CLOUDY    67  60  78 SE8       29.48F
FREMONT        FAIR      62  54  76 E3        29.47F
HOLLAND        CLOUDY    63  56  78 CALM      29.47S
GRAND RAPIDS   CLOUDY    65  57  75 NE3       29.46F
IONIA          FAIR      64  55  71 E3        29.48F
KALAMAZOO      CLOUDY    68  54  60 CALM      29.47F
LUDINGTON      CLOUDY    60  54  82 CALM      29.46F
MARSHALL       CLOUDY    67  62  84 E10       29.45F
MOUNT PLEASANT CLOUDY    64  53  68 CALM      29.50F
MUSKEGON       MOCLDY    63  54  72 CALM      29.47S
SOUTH HAVEN    CLOUDY    61  55  81 CALM      29.46S
$$
MIZ016>042-270400-
NORTHERN LOWER MICHIGAN

CITY           SKY/WX    TMP DP  RH WIND       PRES   REMARKS
ALPENA         PTCLDY    60  55  83 E5        29.52R
BEAVER ISLAND  CLOUDY    61  56  82 S3        29.49R
BELLAIRE       CLOUDY    58  54  85 CALM      29.48R
CADILLAC       CLOUDY    62  54  74 CALM      29.49F
CHARLEVOIX     CLOUDY    59  54  83 CALM      29.51R
FRANKFORT      CLOUDY    65  55  67 SW8       29.46F
GAYLORD        CLOUDY    64  53  67 NE6       29.51S
GRAYLING       CLOUDY    60  52  77 CALM      29.52R
HARBOR SPRINGS CLOUDY    56  55  99 E8        29.50R
HOUGHTON LAKE  CLOUDY    64  58  80 CALM      29.52R
MANISTEE       CLOUDY    65  56  72 SW5       29.46S
OSCODA         CLOUDY    63  53  71 SE7       29.52S
PELLSTON       CLOUDY    53  51  93 CALM      29.51R
ROGERS CITY    CLEAR     49  45  85 CALM      29.52R
TRAVERSE CITY  CLOUDY    67  55  65 CALM      29.46R
$$
MIZ007>008-015-270400-
EASTERN UPPER MICHIGAN

CITY           SKY/WX    TMP DP  RH WIND       PRES   REMARKS
MACKINAC ISLAN CLOUDY    45  45 100 E13       29.51R
NEWBERRY       FOG       51  50  97 S7        29.49R VSB 1/2
S. S. MARIE    PTCLDY    53  49  86 SE7       29.51F
MUNISING         N/A     39  38  96 N9        29.48R WCI  33
$$
MIZ004>006-011>014-085-270400-
CENTRAL UPPER MICHIGAN

CITY           SKY/WX    TMP DP  RH WIND       PRES   REMARKS
MANISTIQUE     FOG       44  43  97 SE13      29.49R VSB 1/2
ESCANABA       CLOUDY    49  48  97 E3        29.43F FOG
MENOMINEE      CLOUDY    59  54  83 W8        29.43F
SAWYER-GWINN   FOG       38  38  99 N5        29.47R VSB 1/2 WCI  34
$$
MIZ001>003-009>011-084-270400-
WESTERN UPPER MICHIGAN

CITY           SKY/WX    TMP DP  RH WIND       PRES   REMARKS
IRON MOUNTAIN  LGT RAIN  41  37  86 NW12G18   29.47R
HOUGHTON       FRZ RAIN  32  29  88 N14G20    29.52R FOG     WCI  22
COPPER HARBOR    N/A     34  33  96 NE17      29.51R WCI  23
IRONWOOD       LGT SNOW  29  28  96 N6        29.58S FOG     WCI  23
$$

ABBREVIATIONS USED IN REMARKS
   TC - TEMPERATURE IN CELSIUS
  WCI - WIND CHILL INDEX
   HX - HEAT INDEX
  VSB - VISIBILITY




USA.gov is the U.S. government's official web portal to all federal, state and local government web resources and services.